User: anonymous   Login
Location: Unspecified
(0.0000°N, 0.0000°E)
Time: 23:18:16
(UTC+00:00)
Language:

COMPASS 1 - Orbit

View from above orbital plane
View from above orbital plane
View from above satellite
View from above satellite

Ground track
Ground track

The orbit data is extracted from the following two-line orbital elements,

1 32787U 08021E   18050.96531243 +.00000522 +00000-0 +55433-4 0  9998
2 32787 097.5374 079.0304 0013318 036.9392 323.2743 14.92917105532413
Epoch (UTC): 19 February 2018 23:10:02
Eccentricity: 0.0013318
inclination: 97.5374°
perigee height: 579 km
apogee height: 598 km
right ascension of ascending node: 79.0304°
argument of perigee: 36.9392°
revolutions per day: 14.92917105
mean anomaly at epoch: 323.2743°
orbit number at epoch: 53241

The dashed part of the orbit path shows where the satellite is in the earth's shadow,  

DLR